DRAGON CRS-12

Last updated on Mon Sep 18 2017 00:15:06 GMT+0000 (Coordinated Universal Time)

1 42904U 17045A 17260.43667123 .35747718 00000-0 35781+0 0 9999 2 42904 51.6403 298.4787 0004318 303.3822 56.5513 15.57297920 5256

Satellite not in orbit